Location: Bannatyne
(13.0833°N, 59.5333°W)
Time: 05:26:35
(UTC+00:00)

NOAA 11 - Pass Details

Date: 18 October 2019
Orbit: 833 x 850 km, 98.4° (Epoch: 18 November)

Event Time Altitude Azimuth Distance (km) Brightness Sun altitude
Rises 23:04:08 0° 163° (SSE) 3,395 7.2 -21.7°
Reaches altitude 10° 23:06:30 10° 161° (SSE) 2,458 6.5 -22.3°
Maximum altitude 23:11:56 72° 77° (ENE) 881 4.0 -23.6°
Drops below altitude 10° 23:17:21 10° 353° (N) 2,448 6.6 -24.9°
Sets 23:19:42 0° 352° (N) 3,380 7.4 -25.5°
